Location: Sungai Igah
(2.7333°N, 114.2500°E)
Time: 10:59:36
(UTC+00:00)

COSMOS 2406 - Pass Details

Date: 14 June 2021
Orbit: 843 x 864 km, 71.0° (Epoch: 04 August)

Event Time Altitude Azimuth Distance (km) Brightness Sun altitude
Exits shadow 19:49:01 48° 73° (ENE) 1,086 4.0 -33.6°
Drops below altitude 10° 19:53:37 10° 29° (NNE) 2,454 6.2 -32.6°
Sets 19:56:06 0° 24° (NNE) 3,386 7.1 -32.1°
